sat.trackr.live / text

‹ back to catalog

STARLINK-5960

NORAD 56920 · 2023-083AW

PAYLOAD ACTIVE UNKNOWN

§ Identity

Operator
Country
US
Launch date
2023-06-12
Launch site
AFETR
Launch vehicle
Mass (kg)
RCS (m²)

Purposes: comms

External: N2YO · Heavens-Above · Gunter

§ Orbital elements

Epoch: 2026-05-24T22:59:32.388864Z

Period
94.27 min
Inclination
43.0036°
Eccentricity
0.0000925
Mean motion
15.27577166 rev/d
Perigee alt
482.4 km
Apogee alt
483.7 km
Semi-major
6,861.2 km
B*
1.2260e-5
RAAN
359.8442°
Arg perigee
246.9675°
Mean anomaly
113.1079°
Rev number
16,346

§ Raw data

STARLINK-59601 56920U 23083AW  26144.95801376  .00000075  00000+0  12260-4 0  99902 56920  43.0036 359.8442 0000925 246.9675 113.1079 15.27577166163469

JSON: /api/v1/satellites/56920 · /tle

For live sub-satellite position, see the globe view (requires WebGL).

§ Visibility from observer

Set your observer location to see the next 7 days of passes ≥ 10°. The values pass through the URL so the page stays shareable.

No JS? Fill the form by hand. The geolocation button needs JavaScript.